Location: Unspecified
(0.0000°N, 0.0000°E)
Time: 01:47:35
(UTC+00:00)

OV3-3 - Visible Passes

Search period start: 22 November 2017 00:00
Search period end: 02 December 2017 00:00
Orbit: 341 x 2255 km, 81.4° (Epoch: 21 November)

Date Brightness Start Highest point End Pass type
(mag) Time Alt. Az. Time Alt. Az. Time Alt. Az.
28 Nov 10.3 21:00:51 10° SSE 21:00:52 10° SSE 21:00:52 10° SSE visible
29 Nov 10.1 21:11:26 10° S 21:12:37 16° S 21:12:37 16° S visible
30 Nov 9.9 21:22:14 10° S 21:24:26 22° S 21:24:26 22° S visible
01 Dec 10.2 19:44:35 10° SE 19:44:37 10° SE 19:44:37 10° SE visible
01 Dec 9.8 21:33:14 10° SSW 21:36:18 28° SSW 21:36:18 28° SSW visible
